Home > Weather > Monheim am Rhein > Past weeks

Flag for Germany Past Weather in Monheim am Rhein, North Rhine-Westphalia, Germany — Yesterday and Last 2 Weeks

Now
66 °F

Passing clouds.


Feels Like: 66 °F
Forecast: 58 / 73 °F
Wind: 5 mph from Northeast

Location: Duesseldorf

Current Time: May 29, 2016 at 12:15:00 AM

Latest Report: May 28, 2016 at 11:20 PM


Visibility: N/A

Pressure: 29.80 "Hg

Humidity: 73%

Dew Point: 57 °F

Location of Monheim am RheinLocation

Past Weather in Monheim am Rhein — Graph

°F

Monheim am Rhein Temperature Yesterday

Maximum temperature yesterday: 77 °F (at 2:50 PM)
Minimum temperature yesterday: 55 °F (at 4:20 AM)
Average temperature yesterday: 66 °F

High & Low Weather Summary for the Past Weeks

 TemperatureHumidityPressure
High77 °F (May 28, 2:50 PM)100% (May 19, 3:50 AM)30.12 "Hg (May 19, 3:50 AM)
Low41 °F (May 15, 5:20 AM)38% (May 26, 4:50 PM)29.68 "Hg (May 18, 7:20 PM)
Average57 °F72%29.95 "Hg
* Reported May 13 11:20 PM — May 28 11:20 PM, Monheim am Rhein, Weather by CustomWeather, © 2016

Note: Actual official high and low records may vary slightly from our data, if they occured in-between our weather recording intervals... More about our weather records

Advertising

Monheim am Rhein Weather History for the Previous 24 Hours

Scroll right to see more
 ConditionsComfort  
Time TempWeatherWind HumidityBarometerVisibility
11:20 PM
Sat, May 28
66 °FPassing clouds.5 mph73%29.80 "HgN/A
10:50 PM66 °FClear.6 mph78%29.80 "Hg10 mi
10:20 PM68 °FSunny.6 mph69%29.80 "Hg10 mi
9:50 PM68 °FSunny.6 mph73%29.83 "Hg10 mi
9:20 PM70 °FSunny.6 mph64%29.83 "Hg10 mi
8:50 PM70 °FSunny.7 mph64%29.83 "Hg10 mi
8:20 PM70 °FBroken clouds.3 mph73%29.83 "HgN/A
7:50 PM72 °FBroken clouds.2 mph65%29.83 "HgN/A
7:20 PM73 °FBroken clouds.5 mph61%29.83 "HgN/A
6:50 PM73 °FMore clouds than sun.6 mph57%29.83 "HgN/A
6:20 PM73 °FPartly sunny.6 mph57%29.83 "HgN/A
5:50 PM75 °FPartly sunny.7 mph50%29.83 "HgN/A
5:20 PM77 °FSunny.5 mph47%29.83 "Hg10 mi
4:50 PM75 °FPassing clouds.7 mph50%29.86 "HgN/A
4:20 PM75 °FPassing clouds.6 mph54%29.86 "HgN/A
3:50 PM77 °FPassing clouds.3 mph47%29.86 "HgN/A
3:20 PM73 °FPassing clouds.6 mph57%29.86 "HgN/A
2:50 PM77 °FPassing clouds.3 mph44%29.89 "HgN/A
2:20 PM75 °FPassing clouds.3 mph47%29.89 "HgN/A
1:50 PM75 °FScattered clouds.3 mph54%29.89 "HgN/A
1:20 PM75 °FScattered clouds.3 mph54%29.92 "HgN/A
12:50 PM73 °FScattered clouds.3 mph57%29.92 "HgN/A
12:20 PM72 °FScattered clouds.5 mph61%29.92 "HgN/A
11:50 AM70 °FPassing clouds.1 mph69%29.92 "HgN/A
11:20 AM70 °FPassing clouds.2 mph69%29.92 "Hg6 mi
10:50 AM68 °FPassing clouds.2 mph73%29.92 "Hg6 mi
10:20 AM66 °FScattered clouds.3 mph78%29.92 "Hg6 mi
9:50 AM64 °FScattered clouds.3 mph83%29.95 "Hg6 mi
9:20 AM63 °FPartly sunny.3 mph88%29.95 "Hg6 mi
8:50 AM63 °FPartly sunny.2 mph88%29.95 "Hg6 mi
8:20 AM61 °FPartly sunny.1 mph94%29.95 "Hg4 mi
7:50 AM59 °FClear.2 mph94%29.95 "Hg4 mi
7:20 AM59 °FClear.2 mph94%29.95 "Hg4 mi
6:50 AM57 °FClear.2 mph94%29.95 "Hg4 mi
6:20 AM57 °FClear.3 mph94%29.95 "Hg4 mi
5:50 AM55 °FFog.2 mph100%29.95 "Hg2 mi
5:20 AM55 °FFog.1 mph100%29.95 "Hg2 mi
4:50 AM55 °FFog.1 mph100%29.95 "Hg3 mi
4:20 AM55 °FFog.2 mph100%29.95 "Hg5 mi
3:50 AM57 °FFog.1 mph94%29.95 "Hg5 mi
3:20 AM57 °FClear.3 mph100%29.95 "Hg10 mi
2:50 AM59 °FFog.2 mph94%29.95 "HgN/A
2:20 AM59 °FFog.3 mph94%29.95 "HgN/A
1:50 AM59 °FFog.3 mph94%29.95 "HgN/A
1:20 AM61 °FClear.2 mph88%29.95 "Hg10 mi
12:50 AM61 °FClear.3 mph88%29.95 "Hg10 mi
12:20 AM63 °FClear.3 mph88%29.98 "Hg10 mi
Weather by CustomWeather, © 2016

See weather overviewHow to use our weather pages